User: anonymous   Login
Location: ??????
(38.0131°N, 23.7723°E)
Time: 23:37:20
(UTC+00:00)
Language:

Okean-O - Orbit

View from above orbital plane
View from above orbital plane
View from above satellite
View from above satellite

Ground track
Ground track

The orbit data is extracted from the following two-line orbital elements,

1 25860U 99039A   22276.71365640  .00000634  00000-0  97406-4 0  9995
2 25860  98.1286 317.4561 0001848  83.6586 276.4834 14.77031268249324
Epoch (UTC): 03 October 2022 17:07:39
Eccentricity: 0.0001848
inclination: 98.1286°
perigee height: 637 km
apogee height: 640 km
right ascension of ascending node: 317.4561°
argument of perigee: 83.6586°
revolutions per day: 14.77031268
mean anomaly at epoch: 276.4834°
orbit number at epoch: 24932

The dashed part of the orbit path shows where the satellite is in the earth's shadow,  

DLR